(17375) = 1998 HW88 = 1981 EJ4

Discovered at Siding Spring on 1981-03-02 by S. J. Bus.

Orbit

Orbit type: Main Belt

Note: WebGL enabled browser required.

epoch2024-03-31.0
epoch JD2460400.5
perihelion date2022-07-23.20128
perihelion JD2459783.70128
argument of perihelion (°)149.17295
ascending node (°)214.91017
inclination (°)10.07099
eccentricity0.0417573
perihelion distance (AU)2.9824819
Tisserand w.r.t. Jupiter3.2
ΔV w.r.t. Earth (km/sec)11.1
semimajor axis (AU)3.1124494
mean anomaly (°)110.71179
mean daily motion (°/day)0.17949420
aphelion distance (AU)3.242
period (years)5.49
P-vector [x]0.99294305
P-vector [y]0.03562355
P-vector [z]0.11311523
Q-vector [x]-0.06363146
Q-vector [y]0.96492958
Q-vector [z]0.25468008
absolute magnitude13.96
phase slope0.15
uncertainty0
referenceMPEC 2024-E109
observations used2645
oppositions23
arc length (days)15729
first opposition used1981
last opposition used2024
residual rms (arc-secs)0.61
perturbers coarse indicatorM-v
perturbers precise indicator003Ek
first observation date used1981-02-02.0
last observation date used2024-02-26.0
computer nameMPCLINUX
JD of orbit computation2456819.467985
perihelion JD uncertainty (days)2.2042E-04
argument of perihelion uncertainty (°)4.3692E-05
ascending node uncertainty (°)1.9661E-05
inclination uncertainty (°)4.3702E-06
eccentricity uncertainty 3.9770E-08
perihelion distance uncertainty (AU)1.2235E-07
Minimum Orbit Intersection Distances (in AU)
for orbit epoch: 2460400.5, reference: E2024-EA9
Mercury2.61952
Venus2.26496
Earth1.98684
Mars1.54738
Jupiter1.96764
Saturn5.97934
Uranus15.2403
Neptune26.8183

Observations

2675 total observations over interval: 1981 02 02.66718 – 2024 02 26.383681
These data are available for download (format description).

Date (UT) J2000 RA J2000 Dec Magn Location Ref
1981 02 02.66718 12 08 41.28 -10 40 37.2   413 – Siding Spring Observatory MPC 9626
1981 02 14.67563 12 05 27.62 -10 27 35.8   413 – Siding Spring Observatory MPC 9626
1981 03 02.52074 11 57 22.47 -09 32 46.7 18.5 V 413 – Siding Spring Observatory MPC 7096
1981 03 02.56588 11 57 21.03 -09 32 35.1   413 – Siding Spring Observatory MPC 7096
1981 03 07.55280 11 54 08.25 -09 07 03.7   413 – Siding Spring Observatory MPC 7096
1981 03 07.59447 11 54 06.62 -09 06 51.9   413 – Siding Spring Observatory MPC 7096
1981 03 10.53941 11 52 07.16 -08 50 10.9   413 – Siding Spring Observatory MPC 7096
1981 03 10.58108 11 52 05.65 -08 49 58.2   413 – Siding Spring Observatory MPC 7096
1981 03 12.52945 11 50 44.99 -08 38 21.9   413 – Siding Spring Observatory MPC 7096
1981 03 12.56765 11 50 43.46 -08 38 08.4   413 – Siding Spring Observatory MPC 7096
1981 04 09.60259 11 32 31.48 -05 25 53.0 19.0 V 413 – Siding Spring Observatory MPC 7096
1981 04 09.63731 11 32 30.48 -05 25 39.9   413 – Siding Spring Observatory MPC 7096
1981 05 03.51150 11 25 12.00 -03 06 34.7   413 – Siding Spring Observatory MPC 10243
1998 04 21.29868 14 21 39.33 -14 04 19.9 18.7   704 – Lincoln Laboratory ETS, New Mexico MPS 1363
1998 04 21.31884 14 21 38.49 -14 04 14.5 19.0   704 – Lincoln Laboratory ETS, New Mexico MPS 1363
1998 04 21.33909 14 21 37.49 -14 04 05.6 19.2   704 – Lincoln Laboratory ETS, New Mexico MPS 1363
1998 04 21.35926 14 21 36.68 -14 03 56.4 19.1   704 – Lincoln Laboratory ETS, New Mexico MPS 1363
1998 04 21.37996 14 21 35.64 -14 03 49.9 19.1   704 – Lincoln Laboratory ETS, New Mexico MPS 1363
1998 04 22.25908 14 20 57.89 -13 58 19.0 18.3   704 – Lincoln Laboratory ETS, New Mexico MPS 1363
1998 04 22.27793 14 20 57.06 -13 58 10.4 18.5   704 – Lincoln Laboratory ETS, New Mexico MPS 1363
1998 04 22.29681 14 20 56.18 -13 58 05.2 18.4   704 – Lincoln Laboratory ETS, New Mexico MPS 1363
1998 04 22.31595 14 20 55.38 -13 57 56.0 18.3   704 – Lincoln Laboratory ETS, New Mexico MPS 1363
1998 04 22.33486 14 20 54.49 -13 57 50.3 18.3   704 – Lincoln Laboratory ETS, New Mexico MPS 1363
1998 05 01.26719 14 14 25.42 -13 00 43.6 19.0   704 – Lincoln Laboratory ETS, New Mexico MPS 1661
1998 05 01.28601 14 14 24.64 -13 00 37.7 18.7   704 – Lincoln Laboratory ETS, New Mexico MPS 1661
1998 05 01.30489 14 14 23.76 -13 00 29.9 18.7   704 – Lincoln Laboratory ETS, New Mexico MPS 1661
1998 05 01.32383 14 14 22.91 -13 00 25.0 19.2   704 – Lincoln Laboratory ETS, New Mexico MPS 1661
1998 05 01.34275 14 14 22.09 -13 00 16.1 19.3   704 – Lincoln Laboratory ETS, New Mexico MPS 1661
1998 05 22.18400 14 01 11.42 -10 57 20.5 18.5   704 – Lincoln Laboratory ETS, New Mexico MPS 1363
1998 05 22.20367 14 01 10.82 -10 57 11.5 18.7   704 – Lincoln Laboratory ETS, New Mexico MPS 1363
1998 05 22.22320 14 01 10.22 -10 57 06.9 18.7   704 – Lincoln Laboratory ETS, New Mexico MPS 1363
1998 05 22.24282 14 01 09.59 -10 57 02.2 19.3   704 – Lincoln Laboratory ETS, New Mexico MPS 1363
1999 06 14.36261 19 52 32.66 -07 22 17.8 18.6   704 – Lincoln Laboratory ETS, New Mexico MPS 4736
1999 06 14.37457 19 52 32.36 -07 22 16.6 19.3   704 – Lincoln Laboratory ETS, New Mexico MPS 4736
1999 06 14.38653 19 52 31.98 -07 22 13.4 19.2   704 – Lincoln Laboratory ETS, New Mexico MPS 4736
1999 06 14.39850 19 52 31.63 -07 22 12.6 19.1   704 – Lincoln Laboratory ETS, New Mexico MPS 4736
1999 06 14.41047 19 52 31.33 -07 22 10.5 18.9   704 – Lincoln Laboratory ETS, New Mexico MPS 4736
1999 07 22.25216 19 26 31.50 -07 12 55.3 19.1   704 – Lincoln Laboratory ETS, New Mexico MPS 5483
1999 07 22.26461 19 26 30.82 -07 12 55.3 19.5   704 – Lincoln Laboratory ETS, New Mexico MPS 5483
1999 07 22.27692 19 26 30.22 -07 12 56.4 19.1   704 – Lincoln Laboratory ETS, New Mexico MPS 5483
2000 09 01.34534 01 24 29.61 +15 00 22.6 18.2   704 – Lincoln Laboratory ETS, New Mexico MPS 17296
2000 09 01.35905 01 24 29.29 +15 00 21.2 19.0   704 – Lincoln Laboratory ETS, New Mexico MPS 17296
2000 09 01.37265 01 24 29.09 +15 00 19.0 19.2   704 – Lincoln Laboratory ETS, New Mexico MPS 17296
2000 09 01.38720 01 24 28.98 +15 00 16.6 18.4   704 – Lincoln Laboratory ETS, New Mexico MPS 17296
2000 09 01.40147 01 24 28.68 +15 00 14.3 18.7   704 – Lincoln Laboratory ETS, New Mexico MPS 17296
2000 09 04.43013 01 23 44.41 +14 52 29.3 18.7 R 699 – Lowell Observatory-LONEOS MPS 18835
2000 09 04.43869 01 23 44.27 +14 52 27.7   699 – Lowell Observatory-LONEOS MPS 18835
2000 09 04.44727 01 23 44.11 +14 52 26.7   699 – Lowell Observatory-LONEOS MPS 18835
2000 09 04.45590 01 23 43.97 +14 52 25.5   699 – Lowell Observatory-LONEOS MPS 18835
2000 09 23.33111 01 15 15.26 +13 30 40.3 18.2   704 – Lincoln Laboratory ETS, New Mexico MPS 18835
2000 09 23.34561 01 15 14.71 +13 30 34.9 18.7   704 – Lincoln Laboratory ETS, New Mexico MPS 18835
2000 09 23.38890 01 15 13.10 +13 30 20.5 19.0   704 – Lincoln Laboratory ETS, New Mexico MPS 18835
2000 09 25.33825 01 14 01.53 +13 18 49.8 18.1 R 699 – Lowell Observatory-LONEOS MPS 30612
2000 09 25.35593 01 14 00.83 +13 18 43.8   699 – Lowell Observatory-LONEOS MPS 30612
2000 09 25.37358 01 14 00.13 +13 18 37.0   699 – Lowell Observatory-LONEOS MPS 30612
2000 09 25.39126 01 13 59.45 +13 18 30.5   699 – Lowell Observatory-LONEOS MPS 30612
2000 09 28.27438 01 12 08.84 +13 00 34.4 18.1   704 – Lincoln Laboratory ETS, New Mexico MPS 18835
2000 09 28.28945 01 12 08.25 +13 00 28.6 18.1   704 – Lincoln Laboratory ETS, New Mexico MPS 18835
2000 09 28.30449 01 12 07.60 +13 00 23.1 18.2   704 – Lincoln Laboratory ETS, New Mexico MPS 18835
2000 09 28.31956 01 12 07.00 +13 00 17.7 18.9   704 – Lincoln Laboratory ETS, New Mexico MPS 18835
2000 09 28.33460 01 12 06.40 +13 00 12.4 19.0   704 – Lincoln Laboratory ETS, New Mexico MPS 18835
2000 10 03.34679 01 08 43.43 +12 26 43.9 17.9   704 – Lincoln Laboratory ETS, New Mexico MPS 18835
2000 10 03.36173 01 08 42.77 +12 26 37.6 18.4   704 – Lincoln Laboratory ETS, New Mexico MPS 18835
2000 10 03.37667 01 08 42.15 +12 26 31.5 18.6   704 – Lincoln Laboratory ETS, New Mexico MPS 18835
2000 10 03.39167 01 08 41.48 +12 26 25.3 18.9   704 – Lincoln Laboratory ETS, New Mexico MPS 18835
2000 10 03.40665 01 08 40.85 +12 26 18.7 18.6   704 – Lincoln Laboratory ETS, New Mexico MPS 18835
2000 10 04.25707 01 08 05.68 +12 20 23.7 18.1   704 – Lincoln Laboratory ETS, New Mexico MPS 18835
2000 10 04.27212 01 08 05.03 +12 20 16.9 18.3   704 – Lincoln Laboratory ETS, New Mexico MPS 18835
2000 10 04.28717 01 08 04.38 +12 20 10.9 18.3   704 – Lincoln Laboratory ETS, New Mexico MPS 18835
2000 10 04.30224 01 08 03.75 +12 20 04.1 18.6   704 – Lincoln Laboratory ETS, New Mexico MPS 18835
2000 10 04.31731 01 08 03.10 +12 19 58.7 18.2   704 – Lincoln Laboratory ETS, New Mexico MPS 18835
2000 10 05.40578 01 07 17.39 +12 12 16.6 18.4 V 691 – Steward Observatory, Kitt Peak-Spacewatch MPS 18835
2000 10 05.42703 01 07 16.47 +12 12 07.6 18.3 V 691 – Steward Observatory, Kitt Peak-Spacewatch MPS 18835
2000 10 05.44822 01 07 15.56 +12 11 58.4 18.4 V 691 – Steward Observatory, Kitt Peak-Spacewatch MPS 18835
2000 10 25.22893 00 53 46.85 +09 44 15.5 18.6   704 – Lincoln Laboratory ETS, New Mexico MPS 21993
2000 10 25.24273 00 53 46.31 +09 44 09.8 18.7   704 – Lincoln Laboratory ETS, New Mexico MPS 21993
2000 10 25.25660 00 53 45.79 +09 44 03.7 18.8   704 – Lincoln Laboratory ETS, New Mexico MPS 21993
2000 10 25.27110 00 53 45.21 +09 43 56.5 18.9   704 – Lincoln Laboratory ETS, New Mexico MPS 21993
2000 10 25.28486 00 53 44.69 +09 43 51.0 18.9   704 – Lincoln Laboratory ETS, New Mexico MPS 21993
2000 10 31.21280 00 50 21.32 +09 01 00.3 18.0   704 – Lincoln Laboratory ETS, New Mexico MPS 21993
2000 10 31.22729 00 50 20.83 +09 00 54.3 18.2   704 – Lincoln Laboratory ETS, New Mexico MPS 21993
2000 10 31.24127 00 50 20.38 +09 00 48.5 18.6   704 – Lincoln Laboratory ETS, New Mexico MPS 21993
2000 10 31.25523 00 50 19.90 +09 00 43.0 18.5   704 – Lincoln Laboratory ETS, New Mexico MPS 21993
2000 10 31.26948 00 50 19.47 +09 00 36.3 18.0   704 – Lincoln Laboratory ETS, New Mexico MPS 21993
2000 11 03.14912 00 48 52.48 +08 40 49.5 18.1   704 – Lincoln Laboratory ETS, New Mexico MPS 21993
